FW8839 Weather Reports


time (UTC)temp
F
wind
direction
speed
knots
gust
knots
rain 1hr
in
rain 24hr
in
rain mn
in
humidity
%
barometer
mb
20260504175055 70 242 7.0 13.9 0.00 0.00 0.00 34 1008.4
20260504174555 70 220 7.0 14.8 0.00 0.00 0.00 34 1008.5
20260504174055 70 213 6.1 14.8 0.00 0.00 0.00 33 1008.5
20260504173555 69 213 4.3 13.9 0.00 0.00 0.00 35 1008.5
20260504173054 69 218 7.0 13.9 0.00 0.00 0.00 35 1008.6
20260504172555 68 194 4.3 15.6 0.00 0.00 0.00 36 1008.6
20260504172054 69 240 8.7 15.6 0.00 0.00 0.00 35 1008.8
20260504171555 69 217 5.2 14.8 0.00 0.00 0.00 35 1008.8
20260504171055 68 279 7.0 14.8 0.00 0.00 0.00 35 1008.9
20260504170554 68 203 5.2 14.8 0.00 0.00 0.00 35 1008.9
20260504151056 64 267 4.3 14.8 0.00 0.00 0.00 45 1010.1
20260504150555 64 228 5.2 13.9 0.00 0.00 0.00 46 1010.2
20260504141051 61 203 5.2 12.2 0.00 0.00 0.00 55 1010.3
20260504140551 61 242 5.2 13.0 0.00 0.00 0.00 55 1010.4
20260504130555 57 219 4.3 12.2 0.00 0.00 0.00 66 1010.8
20260504120106 54 190 3.5 7.8 0.00 0.00 0.00 74 1011.1
20260504110555 52 205 2.6 7.8 0.00 0.00 0.00 76 1011.3
20260504100557 50 216 1.7 7.8 0.00 0.00 0.00 74 1011.5
20260504090112 50 227 0.0 5.2 0.00 0.00 0.00 70 1011.5
20260504081606 50 230 1.7 6.1 0.00 0.00 0.00 67 1011.4
20260504081056 50 236 1.7 6.1 0.00 0.00 0.00 67 1011.4
20260504080554 50 0 1.7 5.2 0.00 0.00 0.00 66 1011.3
20260504050555 52 0 0.9 6.1 0.00 0.00 0.00 57 1010.8
20260504045557 52 0 0.0 5.2 0.00 0.00 0.00 56 1010.8
20260504045056 53 0 0.0 2.6 0.00 0.00 0.00 56 1010.9
20260504044605 53 239 0.9 2.6 0.00 0.00 0.00 56 1010.9
20260504044054 53 245 0.0 2.6 0.00 0.00 0.00 55 1010.8
20260504043555 53 0 0.0 0.0 0.00 0.00 0.00 55 1010.8
20260504043054 53 0 0.0 1.7 0.00 0.00 0.00 55 1010.8
20260504042555 53 0 0.0 1.7 0.00 0.00 0.00 55 1010.8
20260504042052 53 245 0.0 3.5 0.00 0.00 0.00 54 1010.8
20260504041556 53 0 0.0 3.5 0.00 0.00 0.00 54 1010.7
20260504041052 53 0 0.0 3.5 0.00 0.00 0.00 54 1010.7
20260504040553 53 0 0.0 1.7 0.00 0.00 0.00 54 1010.8
20260504040112 53 0 0.0 2.6 0.00 0.00 0.00 53 1010.7
20260504035557 54 0 0.0 2.6 0.00 0.00 0.00 53 1010.6
20260504035053 54 0 0.0 1.7 0.00 0.00 0.00 53 1010.6
20260504034604 54 0 0.0 1.7 0.00 0.00 0.00 52 1010.6
20260504034052 54 0 0.0 3.5 0.00 0.00 0.00 52 1010.4
20260504033556 54 0 0.0 3.5 0.00 0.00 0.00 51 1010.5
20260504033056 54 219 0.0 3.5 0.00 0.00 0.00 51 1010.4
20260504032554 55 0 0.0 6.1 0.00 0.00 0.00 50 1010.3
20260504032051 55 221 1.7 6.1 0.00 0.00 0.00 50 1010.4
20260504031556 55 240 1.7 6.1 0.00 0.00 0.00 49 1010.3
20260504031052 55 0 0.0 2.6 0.00 0.00 0.00 47 1010.3
20260504030552 55 0 0.0 2.6 0.00 0.00 0.00 46 1010.3
20260504030054 55 269 0.0 3.5 0.00 0.00 0.00 46 1010.3
20260504025556 55 0 0.0 3.5 0.00 0.00 0.00 45 1010.2
20260504025056 55 0 0.0 3.5 0.00 0.00 0.00 44 1010.4
20260504024555 56 0 0.0 3.5 0.00 0.00 0.00 44 1010.3
20260504024053 56 257 0.0 3.5 0.00 0.00 0.00 43 1010.3
20260504023552 56 254 0.0 1.7 0.00 0.00 0.00 43 1010.3
20260504023057 56 253 0.0 1.7 0.00 0.00 0.00 42 1010.3
20260504022553 56 0 0.0 1.7 0.00 0.00 0.00 42 1010.2
20260504022055 56 242 0.0 4.3 0.00 0.00 0.00 42 1010.3
20260504021552 56 0 0.9 5.2 0.00 0.00 0.00 42 1010.3
20260504021052 56 155 0.0 5.2 0.00 0.00 0.00 42 1010.2
20260504020555 56 0 0.9 5.2 0.00 0.00 0.00 41 1010.1
20260504020053 56 0 0.0 3.5 0.00 0.00 0.00 41 1010.2
20260504015552 56 290 0.0 3.5 0.00 0.00 0.00 41 1010.1
20260504015055 57 0 0.9 3.5 0.00 0.00 0.00 41 1010.2
20260504014555 57 0 0.0 3.5 0.00 0.00 0.00 40 1010.1
20260504014054 57 0 0.0 3.5 0.00 0.00 0.00 40 1010.1
20260504013552 57 0 0.0 5.2 0.00 0.00 0.00 40 1010.0
20260504013113 57 0 0.9 5.2 0.00 0.00 0.00 40 1010.0
20260504012554 57 0 0.9 3.5 0.00 0.00 0.00 39 1009.9
20260504012052 57 0 0.0 2.6 0.00 0.00 0.00 39 1009.9
20260504011556 58 0 0.0 3.5 0.00 0.00 0.00 39 1009.8
20260504011051 58 0 0.9 3.5 0.00 0.00 0.00 39 1009.8
20260504010551 58 234 0.0 4.3 0.00 0.00 0.00 39 1009.7
20260504010101 58 263 0.0 4.3 0.00 0.00 0.00 39 1009.8
20260504005553 58 232 0.9 3.5 0.00 0.00 0.00 38 1009.7
20260504005052 58 258 0.9 5.2 0.00 0.00 0.00 38 1009.6
20260504004609 58 0 0.9 5.2 0.00 0.00 0.00 37 1009.5
20260504004055 58 0 0.9 6.1 0.00 0.00 0.00 37 1009.5
20260504003554 58 257 1.7 6.1 0.00 0.00 0.00 37 1009.4
20260504003057 59 286 0.9 7.0 0.00 0.00 0.00 37 1009.2
20260504002554 59 269 1.7 7.8 0.00 0.00 0.00 36 1009.1
20260504002055 59 263 1.7 7.8 0.00 0.00 0.00 36 1009.1
20260504001552 59 259 1.7 7.8 0.00 0.00 0.00 36 1009.1
20260504001055 59 281 2.6 7.0 0.00 0.00 0.00 36 1009.1
20260504000555 59 309 1.7 8.7 0.00 0.00 0.00 35 1009.1
20260504000114 59 263 1.7 8.7 0.00 0.00 0.00 35 1009.0
20260503235554 59 297 2.6 8.7 0.00 0.00 0.00 35 1009.0
20260503235059 59 250 1.7 9.6 0.00 0.00 0.00 35 1008.9
20260503234555 60 304 4.3 9.6 0.00 0.00 0.00 35 1009.0
20260503234052 60 282 2.6 8.7 0.00 0.00 0.00 34 1008.8
20260503233555 60 273 1.7 11.3 0.00 0.00 0.00 34 1008.8
20260503233057 60 308 3.5 11.3 0.00 0.00 0.00 34 1008.7
20260503232554 60 252 3.5 11.3 0.00 0.00 0.00 34 1008.7
20260503232052 60 305 3.5 11.3 0.00 0.00 0.00 33 1008.7
20260503231556 61 245 3.5 11.3 0.00 0.00 0.00 33 1008.7
20260503231053 61 319 4.3 9.6 0.00 0.00 0.00 33 1008.7
20260503230556 61 290 2.6 10.4 0.00 0.00 0.00 32 1008.6
20260503230100 61 290 4.3 10.4 0.00 0.00 0.00 32 1008.5
20260503225555 61 284 3.5 10.4 0.00 0.00 0.00 32 1008.5
20260503225055 61 254 5.2 10.4 0.00 0.00 0.00 32 1008.5
20260503224555 61 279 4.3 13.0 0.00 0.00 0.00 32 1008.5
20260503224055 61 296 4.3 13.0 0.00 0.00 0.00 31 1008.5
20260503223555 61 297 3.5 11.3 0.00 0.00 0.00 31 1008.5
20260503223057 61 254 3.5 11.3 0.00 0.00 0.00 31 1008.3
20260503222554 61 298 3.5 10.4 0.00 0.00 0.00 31 1008.4
20260503222054 61 281 6.1 12.2 0.00 0.00 0.00 31 1008.5
20260503221555 61 268 3.5 13.0 0.00 0.00 0.00 31 1008.4
20260503221055 61 320 6.1 13.0 0.00 0.00 0.00 31 1008.6
20260503220555 62 288 4.3 9.6 0.00 0.00 0.00 31 1008.4
20260503220116 62 281 1.7 10.4 0.00 0.00 0.00 31 1008.6
20260503215551 61 290 1.7 11.3 0.00 0.00 0.00 31 1008.5
20260503215056 61 281 3.5 11.3 0.00 0.00 0.00 31 1008.6
20260503214553 61 304 5.2 11.3 0.00 0.00 0.00 31 1008.6
20260503214054 62 22 2.6 10.4 0.00 0.00 0.00 32 1008.6
20260503213552 61 214 2.6 13.9 0.00 0.00 0.00 32 1008.4
20260503213054 61 238 3.5 13.9 0.00 0.00 0.00 32 1008.4
20260503212555 61 284 5.2 13.9 0.00 0.00 0.00 32 1008.5
20260503212055 61 261 4.3 14.8 0.00 0.00 0.00 32 1008.3
20260503211555 61 321 5.2 14.8 0.00 0.00 0.00 32 1008.5
20260503211055 61 306 5.2 11.3 0.00 0.00 0.00 31 1008.6
20260503210555 61 296 3.5 11.3 0.00 0.00 0.00 32 1008.4
20260503210057 60 284 4.3 13.0 0.00 0.00 0.00 32 1008.5
20260503205555 60 271 3.5 13.0 0.00 0.00 0.00 33 1008.6
20260503205055 59 273 7.0 15.6 0.00 0.00 0.00 32 1008.6
20260503204556 60 279 3.5 15.6 0.00 0.00 0.00 33 1008.7
20260503204054 60 271 6.1 13.9 0.00 0.00 0.00 32 1008.6
20260503203554 61 219 6.1 13.0 0.00 0.00 0.00 32 1008.5
20260503203057 60 355 5.2 12.2 0.00 0.00 0.00 33 1008.5
20260503202558 59 275 2.6 10.4 0.00 0.00 0.00 33 1008.7
20260503202052 59 284 3.5 8.7 0.00 0.00 0.00 32 1008.8
20260503201554 59 317 3.5 12.2 0.00 0.00 0.00 33 1008.8
20260503201058 59 261 2.6 12.2 0.00 0.00 0.00 33 1008.7
20260503200551 59 285 2.6 17.4 0.00 0.00 0.00 33 1008.7
20260503200100 59 297 4.3 17.4 0.00 0.00 0.00 32 1008.7
20260503195555 59 287 7.8 17.4 0.00 0.00 0.00 33 1008.7
20260503195052 59 288 7.0 15.6 0.00 0.00 0.00 32 1008.7
20260503194556 59 285 8.7 15.6 0.00 0.00 0.00 32 1008.7
20260503194055 59 283 7.8 15.6 0.00 0.00 0.00 32 1008.9
20260503193554 59 299 2.6 12.2 0.00 0.00 0.00 32 1008.8
20260503193054 59 90 4.3 16.5 0.00 0.00 0.00 32 1008.9
20260503192555 58 0 5.2 16.5 0.00 0.00 0.00 32 1008.9
20260503192055 58 355 4.3 11.3 0.00 0.00 0.00 33 1009.0
20260503191554 58 30 4.3 12.2 0.00 0.00 0.00 33 1008.9
20260503191055 59 306 4.3 13.9 0.00 0.00 0.00 32 1008.9
20260503190552 59 0 3.5 13.9 0.00 0.00 0.00 33 1009.1
20260503190056 58 360 4.3 13.9 0.00 0.00 0.00 33 1009.2
20260503185554 58 302 3.5 17.4 0.00 0.00 0.00 34 1009.0
20260503185057 58 215 5.2 17.4 0.00 0.00 0.00 33 1009.2
20260503184605 58 254 5.2 17.4 0.00 0.00 0.00 33 1009.2
20260503184055 57 283 4.3 17.4 0.00 0.00 0.00 33 1009.1
20260503183553 57 38 4.3 13.9 0.00 0.00 0.00 33 1009.3
20260503183055 56 23 3.5 12.2 0.00 0.00 0.00 34 1009.5
20260503182556 56 293 5.2 15.6 0.00 0.00 0.00 34 1009.5
20260503182052 56 229 6.1 15.6 0.00 0.00 0.00 34 1009.3
20260503181602 56 317 5.2 13.0 0.00 0.00 0.00 34 1009.4
20260503181056 57 341 4.3 12.2 0.00 0.00 0.00 34 1009.5
20260503180555 56 235 6.1 13.9 0.00 0.00 0.00 34 1009.4
20260503180105 56 189 5.2 15.6 0.00 0.00 0.00 35 1009.3
20260503175554 56 273 6.1 15.6 0.00 0.00 0.00 35 1009.5